Location: Ballingbuur
(53.0000°N, 5.7667°E)
Time: 06:40:39
(UTC+00:00)

CZ-4C R/B - Pass Details

Date: 29 November 2020
Orbit: 620 x 1382 km, 63.4° (Epoch: 23 January)

Event Time Altitude Azimuth Distance (km) Brightness Sun altitude
Exits shadow 05:11:08 - 214° (SW) 2,497 4.4 -19.1°
Reaches altitude 10° 05:11:50 10° 213° (SSW) 2,225 4.2 -19.0°
Maximum altitude 05:16:52 70° 131° (SE) 879 2.4 -18.3°
Drops below altitude 10° 05:23:03 10° 49° (NE) 2,704 5.3 -17.4°
Sets 05:25:54 0° 47° (NE) 3,783 6.1 -17.0°
